Regional Weather Roundup
Issued by NWS Cleveland, OH

Home | Current Version | Previous Version | Graphics & Text | Print | Product List | Glossary On
Versions: 1 2 3 4 5 6 7 8 9 10 11 12 13 14 15 16 17 18 19 20 21 22 23 24 25 26 27 28 29 30 31 32 33 34 35 36 37 38 39 40 41 42 43 44 45 46 47 48 49 50
000
ASUS41 KCLE 011200
RWRCLE
OHIO REGIONAL WEATHER ROUNDUP
NATIONAL WEATHER SERVICE WILMINGTON, OH
800 AM EDT TUE SEP 01 2015

NOTE: "FAIR" INDICATES FEW OR NO CLOUDS BELOW 12,000 FEET WITH NO
SIGNIFICANT WEATHER AND/OR OBSTRUCTIONS TO VISIBILITY.

OHZ001>008-015>018-024>027-034-035-043-044-011300-
   NORTHWEST OHIO

CITY           SKY/WX    TMP DP  RH WIND       PRES   REMARKS
DEFIANCE       CLEAR     69  66  90 CALM      30.12R FOG
FINDLAY        SUNNY     69  66  90 S3        30.12R FOG
TOLEDO EXPRESS SUNNY     66  66 100 CALM      30.11R FOG
TOLEDO EXEC    SUNNY     69  65  86 SW3       30.12R FOG
LIMA           CLEAR     68  66  93 CALM      30.14R FOG
$$

OHZ009>014-019>023-028>033-038-089-011300-
   NORTHEAST OHIO

CITY           SKY/WX    TMP DP  RH WIND       PRES   REMARKS
CLE-HOPKINS    MOSUNNY   70  66  87 S5        30.14R
CLE-LAKEFRONT  MOSUNNY   74  67  78 S5        30.10R
CUY CO. ARPT   MOSUNNY   70  68  94 CALM      30.12R FOG
LORAIN-ELYRIA  SUNNY     68  66  93 SW3       30.13R FOG
ASHTABULA      MOSUNNY   65  64  97 CALM      30.13R FOG
AKRON-CANTON   MOSUNNY   69  66  90 CALM      30.14R FOG
WOOSTER        NOT AVBL
MANSFIELD      SUNNY     68  67  96 SW3       30.15R FOG
YOUNGSTOWN     MOSUNNY   65  63  93 CALM      30.14R FOG
$$

OHZ042-051>053-060>062-070>072-077>081-011300-
  SOUTHWEST OHIO

CITY           SKY/WX    TMP DP  RH WIND       PRES   REMARKS
CINC-COVINGTON PTCLDY    66  65  96 CALM      30.16R
CINC-LUNKEN    CLEAR     66  66 100 CALM      30.16R FOG
HAMILTON       CLEAR     66  65  96 CALM      30.16R FOG
DAYTON         NOT AVBL
WRIGHT-PAT AFB CLEAR     66  66 100 SE2       30.15R
DAYTON GENERAL CLEAR     68  66  93 CALM      30.15R FOG
WILMINGTON     SUNNY     65  64  97 CALM      30.16R FOG
$$

OHZ036-037-039>041-045>050-054>059-063>069-073>076-082>088-011300-
  CENTRAL AND SOUTHEAST OHIO

CITY           SKY/WX    TMP DP  RH WIND       PRES   REMARKS
COLUMBUS       MOSUNNY   69  67  93 CALM      30.14R FOG
OSU AIRPORT    PTSUNNY   69  67  93 CALM      30.14R FOG
BOLTON FIELD   SUNNY     64  64 100 CALM      30.15R FOG
RICKENBACK AFB NOT AVBL
NEWARK         MOSUNNY   65  64  97 CALM      30.14S FOG
MARION         SUNNY     67  65  93 CALM      30.15R FOG
LANCASTER      SUNNY     65  63  93 CALM      30.15R FOG
ZANESVILLE     SUNNY     66  62  87 MISG      30.14S FOG
NEW PHILLY     CLOUDY    66  65  96 CALM      30.14S FOG
$$



USA.gov is the U.S. government's official web portal to all federal, state and local government web resources and services.